TimeEST,TemperatureF,Dew PointF,Humidity,Sea Level PressureIn,VisibilityMPH,Wind Direction,Wind SpeedMPH,Gust SpeedMPH,PrecipitationIn,Events,Conditions,WindDirDegrees,DateUTC
12:56 AM,18.1,13.1,81,30.43,10.0,Calm,Calm,-,N/A,,Clear,0,2013-02-10 05:56:00
1:56 AM,17.1,12.0,81,30.42,10.0,Calm,Calm,-,N/A,,Clear,0,2013-02-10 06:56:00
2:56 AM,16.2,11.1,81,30.41,10.0,Calm,Calm,-,N/A,,Clear,0,2013-02-10 07:56:00
3:56 AM,15.1,11.1,84,30.39,10.0,Calm,Calm,-,N/A,,Clear,0,2013-02-10 08:56:00
4:56 AM,16.2,10.0,77,30.38,10.0,Calm,Calm,-,N/A,,Clear,0,2013-02-10 09:56:00
5:56 AM,16.2,11.1,81,30.38,10.0,Calm,Calm,-,N/A,,Clear,0,2013-02-10 10:56:00
6:56 AM,16.2,12.0,84,30.39,10.0,Calm,Calm,-,N/A,,Clear,0,2013-02-10 11:56:00
7:56 AM,20.1,14.0,77,30.38,10.0,Calm,Calm,-,N/A,,Clear,0,2013-02-10 12:56:00
8:56 AM,24.1,17.1,75,30.37,10.0,Calm,Calm,-,N/A,,Clear,0,2013-02-10 13:56:00
10:56 AM,32.9,21.0,62,30.33,10.0,SW,10.4,-,N/A,,Clear,220,2013-02-10 15:56:00
11:56 AM,37.9,16.2,41,30.30,10.0,Variable,3.5,-,N/A,,Scattered Clouds,0,2013-02-10 16:56:00
12:56 PM,43.9,17.1,34,30.24,10.0,Variable,4.6,-,N/A,,Scattered Clouds,0,2013-02-10 17:56:00
1:56 PM,45.9,18.1,33,30.19,10.0,SSE,5.8,-,N/A,,Mostly Cloudy,150,2013-02-10 18:56:00
2:56 PM,46.9,17.1,30,30.19,10.0,South,5.8,-,N/A,,Overcast,180,2013-02-10 19:56:00
3:56 PM,45.9,18.1,33,30.16,10.0,Variable,5.8,-,N/A,,Mostly Cloudy,0,2013-02-10 20:56:00
4:56 PM,43.9,19.0,37,30.14,10.0,East,3.5,-,N/A,,Overcast,100,2013-02-10 21:56:00
5:56 PM,43.0,18.1,37,30.12,10.0,ESE,6.9,-,N/A,,Overcast,110,2013-02-10 22:56:00
6:56 PM,43.0,19.0,38,30.11,10.0,Variable,5.8,-,N/A,,Overcast,0,2013-02-10 23:56:00
7:56 PM,41.9,20.1,42,30.09,10.0,Variable,6.9,-,N/A,,Overcast,0,2013-02-11 00:56:00
8:56 PM,41.9,20.1,42,30.05,10.0,SE,12.7,-,N/A,,Clear,130,2013-02-11 01:56:00
9:56 PM,41.9,20.1,42,30.04,10.0,Variable,5.8,-,N/A,,Overcast,0,2013-02-11 02:56:00
10:56 PM,43.0,21.0,42,30.01,10.0,Variable,6.9,-,N/A,,Overcast,0,2013-02-11 03:56:00
11:56 PM,43.0,22.1,44,29.98,10.0,SSE,6.9,-,N/A,,Overcast,160,2013-02-11 04:56:00